Flag for Pakistan Weather past 2 weeks in Lahore, Pakistan

Now
84 °F

Passing clouds.


Feels Like: 96 °F
Forecast: 79 / 96 °F
Wind: 3 mph from Southeast

Location: Lahore Airport

Current Time: Jul 29, 2014 at 8:02:55 PM

Latest Report: Jul 29, 2014 at 7:25 PM


Visibility: 3 mi

Pressure: 29.53 "Hg

Humidity: 84%

Dew point: 79 °F

Location of LahoreLocation

Historic Weather in Lahore — Graph

°F

Lahore temperature yesterday

Maximum temperature yesterday: 91 °F (at 12:59 PM)
Minimum temperature yesterday: 81 °F (at 3:55 AM)
Average temperature yesterday: 86 °F

Past Weeks' High & Low Weather Summary

 TemperatureHumidityPressure
High102 °F (Jul 22, 4:25 PM)100% (Jul 18, 12:29 PM)29.68 "Hg (Jul 18, 12:29 PM)
Low75 °F (Jul 29, 10:25 AM)12% (Jul 21, 12:59 PM)29.33 "Hg (Jul 15, 5:55 PM)
Average88 °F70%29.50 "Hg
* Reported Jul 14 6:25 PM — Jul 29 6:55 PM, Lahore, Weather by CustomWeather, © 2014

Note: Actual official high and low records may vary slightly from our data, if they occured in-between our weather recording intervals... More about our weather records

Advertising

Lahore weather history for previous 24 hours

 ConditionsComfort  
Time TempWeatherWind HumidityBarometerVisibility
6:55 PM
Jul 29
84 °FScattered clouds.6 mph84%29.53 "Hg3 mi
6:25 PM86 °FScattered clouds.6 mph79%29.53 "Hg3 mi
5:55 PM86 °FScattered clouds.5 mph79%29.53 "Hg3 mi
5:25 PM86 °FScattered clouds.6 mph79%29.53 "Hg3 mi
4:55 PM86 °FBroken clouds.No wind79%29.53 "Hg3 mi
4:25 PM82 °FBroken clouds.No wind79%29.53 "Hg3 mi
3:55 PM82 °FBroken clouds.No wind79%29.53 "Hg3 mi
3:25 PM79 °FBroken clouds.No wind84%29.53 "Hg3 mi
2:25 PM77 °FBroken clouds.6 mph89%29.56 "Hg3 mi
1:55 PM79 °FBroken clouds.5 mph84%29.53 "Hg3 mi
1:30 PM77 °FBroken clouds.No wind89%29.56 "Hg3 mi
1:00 PM77 °FBroken clouds.No wind89%29.56 "Hg3 mi
12:25 PM77 °FBroken clouds.35 mph89%29.59 "Hg3 mi
12:00 PM75 °FBroken clouds.3 mph94%29.59 "Hg3 mi
11:25 AM75 °FThunderstorms. Broken clouds.No wind94%29.59 "Hg3 mi
10:25 AM75 °FThunderstorms. Broken clouds.6 mph94%29.59 "Hg2 mi
9:55 AM77 °FThunderstorms. Mostly cloudy.10 mph94%29.59 "Hg2 mi
8:55 AM84 °FBroken clouds.14 mph74%29.59 "Hg2 mi
8:25 AM84 °FBroken clouds.9 mph74%29.56 "Hg2 mi
7:55 AM82 °FBroken clouds.10 mph79%29.56 "Hg2 mi
7:25 AM81 °FBroken clouds.10 mph79%29.53 "Hg2 mi
6:55 AM81 °FBroken clouds.9 mph79%29.53 "Hg2 mi
6:25 AM81 °FBroken clouds.12 mph84%29.53 "Hg2 mi
5:55 AM81 °FBroken clouds.9 mph84%29.50 "Hg2 mi
5:25 AM79 °FScattered clouds.9 mph84%29.50 "Hg2 mi
4:55 AM79 °FPassing clouds.12 mph84%29.50 "Hg2 mi
4:25 AM79 °FPassing clouds.10 mph84%29.50 "Hg2 mi
3:55 AM79 °FPassing clouds.7 mph84%29.50 "Hg2 mi
3:25 AM79 °FPassing clouds.5 mph84%29.50 "Hg2 mi
2:55 AM79 °FPassing clouds.8 mph84%29.53 "Hg2 mi
2:25 AM81 °FPassing clouds.8 mph84%29.50 "Hg2 mi
1:55 AM81 °FPassing clouds.8 mph84%29.50 "Hg2 mi
1:25 AM81 °FPassing clouds.7 mph84%29.50 "Hg2 mi
12:55 AM82 °FPassing clouds.8 mph79%29.53 "Hg2 mi
12:25 AM82 °FPassing clouds.8 mph79%29.53 "Hg2 mi
11:55 PM
Jul 28
82 °FPassing clouds.8 mph79%29.53 "Hg2 mi
11:25 PM84 °FPassing clouds.8 mph74%29.53 "Hg2 mi
10:55 PM84 °FPassing clouds.7 mph74%29.53 "Hg2 mi
10:25 PM84 °FPassing clouds.8 mph79%29.53 "Hg2 mi
9:55 PM84 °FPassing clouds.8 mph79%29.53 "Hg2 mi
9:25 PM86 °FPassing clouds.7 mph75%29.53 "Hg2 mi
8:55 PM86 °FPassing clouds.7 mph75%29.53 "Hg2 mi
8:25 PM86 °FPassing clouds.6 mph75%29.50 "Hg2 mi
Weather by CustomWeather, © 2014

See weather overviewHow to use our weather pages